Post-Launch Preliminary TLEs for HuskySat-1
31 Jan
2020
31 Jan
'20
8:57 p.m.
The post-launch preliminary TLEs for HuskySat-1 are as follows:
HuskySat-1 1 99934U 1001D 20031.87746807 .00000000 00000-0 00000-0 0 13 2 99934 51.5569 307.6644 0013532 287.5589 72.3913 15.32433103 16
You can append these to your current TLE data (Use an simple editor like NotePad that adds no formatting data.)
OR
Go to the www.amsat.org and download the nasabare.txt file
Thanks to Paul Stoetzer (N8HM), Jerry Buxton (N0JY), and Joe Fitzgerald (KM1P).
Ray Hoad WA5QGD AMSAT-NA Orbital Elements Manager
1785
Age (days ago)
1785
Last active (days ago)
0 comments
1 participants
participants (1)
-
Ray Hoad